TimeAST,TemperatureF,Dew PointF,Humidity,Sea Level PressureIn,VisibilityMPH,Wind Direction,Wind SpeedMPH,Gust SpeedMPH,PrecipitationIn,Events,Conditions,WindDirDegrees,DateUTC
12:00 AM,60.4,55.8,85,30.21,-9999.0,West,4.6,-,0.04,,Unknown,280,2012-11-14 04:00:00
1:00 AM,52.0,47.7,85,30.26,-9999.0,WNW,2.3,-,0.03,,Unknown,290,2012-11-14 05:00:00
2:00 AM,49,44,77,30.30,,West,2.3,,,,,270,2012-11-14 06:00:00
2:00 AM,48.6,44.1,84,30.30,-9999.0,West,2.3,-,N/A,,Unknown,270,2012-11-14 06:00:00
3:00 AM,48.0,43.9,86,30.32,-9999.0,NNW,1.2,-,N/A,,Unknown,330,2012-11-14 07:00:00
4:00 AM,46.9,43.3,87,30.32,-9999.0,NNE,1.2,-,N/A,,Unknown,20,2012-11-14 08:00:00
5:00 AM,45.7,43.9,93,30.34,-9999.0,NE,3.5,-,N/A,,Unknown,40,2012-11-14 09:00:00
6:00 AM,42.4,41.2,95,30.37,-9999.0,NNE,4.6,-,N/A,,Unknown,20,2012-11-14 10:00:00
7:00 AM,41.5,40.5,96,30.40,-9999.0,NE,2.3,-,0.04,,Unknown,40,2012-11-14 11:00:00
8:00 AM,41,40,92,30.42,,NNE,2.3,,,,,30,2012-11-14 12:00:00
8:00 AM,40.6,39.6,96,30.42,-9999.0,NNE,2.3,-,0.03,,Unknown,30,2012-11-14 12:00:00
9:00 AM,39.4,37.9,95,30.43,-9999.0,North,2.3,-,0.04,,Unknown,350,2012-11-14 13:00:00
10:00 AM,40.3,39.0,95,30.43,-9999.0,North,1.2,-,0.08,,Unknown,360,2012-11-14 14:00:00
11:00 AM,41.5,40.1,95,30.44,-9999.0,NNE,3.5,-,0.06,,Unknown,20,2012-11-14 15:00:00
12:00 PM,41.5,40.1,95,30.42,-9999.0,NNE,3.5,-,0.04,,Unknown,20,2012-11-14 16:00:00
1:00 PM,40.6,38.8,93,30.43,-9999.0,North,3.5,-,0.08,,Unknown,360,2012-11-14 17:00:00
2:00 PM,41,40,94,30.41,,NNE,2.3,,,,,30,2012-11-14 18:00:00
2:00 PM,41.2,39.9,95,30.41,-9999.0,NNE,2.3,-,0.07,,Unknown,30,2012-11-14 18:00:00
3:00 PM,40.1,38.7,95,30.42,-9999.0,North,3.5,-,0.08,,Unknown,350,2012-11-14 19:00:00
4:00 PM,39.7,38.3,95,30.44,-9999.0,North,3.5,-,0.04,,Unknown,360,2012-11-14 20:00:00
5:00 PM,39.4,38.3,96,30.43,-9999.0,North,3.5,-,0.03,,Unknown,350,2012-11-14 21:00:00
6:00 PM,39.6,38.3,95,30.45,-9999.0,NNW,3.5,-,0.08,,Unknown,340,2012-11-14 22:00:00
7:00 PM,40.6,39.7,97,30.44,-9999.0,North,3.5,-,0.03,,Unknown,360,2012-11-14 23:00:00
8:00 PM,41,40,92,30.44,,North,4.6,,,,,0,2012-11-15 00:00:00
8:00 PM,40.8,39.6,95,30.44,-9999.0,North,4.6,-,0.04,,Unknown,360,2012-11-15 00:00:00
9:00 PM,41.2,39.7,95,30.43,-9999.0,North,4.6,-,N/A,,Unknown,360,2012-11-15 01:00:00
10:00 PM,41.7,40.1,94,30.43,-9999.0,North,4.6,-,N/A,,Unknown,360,2012-11-15 02:00:00
11:00 PM,42.1,40.1,93,30.41,-9999.0,North,4.6,-,N/A,,Unknown,10,2012-11-15 03:00:00